Time,TemperatureF,DewpointF,PressureIn,WindDirection,WindDirectionDegrees,WindSpeedMPH,WindSpeedGustMPH,Humidity,HourlyPrecipIn,Conditions,Clouds,dailyrainin,SolarRadiationWatts/m^2,SoftwareType,DateUTC
2013-01-20 00:02:00,24.0,20.0,-100.00,ENE,70,3.0,11.0,85,0.00,,,0.00,51.000000,,2013-01-20 07:02:00,
2013-01-20 00:12:00,24.0,20.0,-100.00,ENE,70,3.0,11.0,85,0.00,,,0.00,51.000000,,2013-01-20 07:12:00,
2013-01-20 00:22:00,24.0,20.0,-100.00,ENE,70,3.0,11.0,85,0.00,,,0.00,51.000000,,2013-01-20 07:22:00,
2013-01-20 00:32:00,24.0,20.0,-100.00,ENE,70,3.0,11.0,85,0.00,,,0.00,51.000000,,2013-01-20 07:32:00,
2013-01-20 00:52:00,27.0,21.0,-100.00,WSW,257,10.0,25.0,79,0.00,,,0.00,81.000000,,2013-01-20 07:52:00,
2013-01-20 01:02:00,27.0,21.0,-100.00,WSW,257,10.0,25.0,79,0.00,,,0.00,81.000000,,2013-01-20 08:02:00,
2013-01-20 01:12:00,27.0,21.0,-100.00,WSW,257,10.0,25.0,79,0.00,,,0.00,81.000000,,2013-01-20 08:12:00,
2013-01-20 01:22:00,27.0,21.0,-100.00,WSW,257,10.0,25.0,79,0.00,,,0.00,81.000000,,2013-01-20 08:22:00,
2013-01-20 01:32:00,27.0,21.0,-100.00,WSW,257,10.0,25.0,79,0.00,,,0.00,81.000000,,2013-01-20 08:32:00,
2013-01-20 01:53:00,28.0,21.0,-100.00,WSW,255,14.0,29.0,75,0.00,,,0.00,69.000000,,2013-01-20 08:53:00,
2013-01-20 02:02:00,28.0,21.0,-100.00,WSW,255,14.0,29.0,75,0.00,,,0.00,69.000000,,2013-01-20 09:02:00,
2013-01-20 02:12:00,28.0,21.0,-100.00,WSW,255,14.0,29.0,75,0.00,,,0.00,69.000000,,2013-01-20 09:12:00,
2013-01-20 02:22:00,28.0,21.0,-100.00,WSW,255,14.0,29.0,75,0.00,,,0.00,69.000000,,2013-01-20 09:22:00,
2013-01-20 02:33:00,28.0,21.0,-100.00,WSW,255,14.0,29.0,75,0.00,,,0.00,69.000000,,2013-01-20 09:33:00,
2013-01-20 02:53:00,29.0,20.0,-100.00,WSW,241,14.0,28.0,70,0.00,,,0.00,74.000000,,2013-01-20 09:53:00,
2013-01-20 03:02:00,29.0,20.0,-100.00,WSW,241,14.0,28.0,70,0.00,,,0.00,74.000000,,2013-01-20 10:02:00,
2013-01-20 03:12:00,29.0,20.0,-100.00,WSW,241,14.0,28.0,70,0.00,,,0.00,74.000000,,2013-01-20 10:12:00,
2013-01-20 03:22:00,29.0,20.0,-100.00,WSW,241,14.0,28.0,70,0.00,,,0.00,74.000000,,2013-01-20 10:22:00,
2013-01-20 03:32:00,29.0,20.0,-100.00,WSW,241,14.0,28.0,70,0.00,,,0.00,74.000000,,2013-01-20 10:32:00,
2013-01-20 03:52:00,32.0,15.0,-100.00,West,279,12.0,26.0,49,0.00,,,0.00,71.000000,,2013-01-20 10:52:00,
2013-01-20 04:02:00,32.0,15.0,-100.00,West,279,12.0,26.0,49,0.00,,,0.00,71.000000,,2013-01-20 11:02:00,
2013-01-20 04:12:00,32.0,15.0,-100.00,West,279,12.0,26.0,49,0.00,,,0.00,71.000000,,2013-01-20 11:12:00,
2013-01-20 04:22:00,32.0,15.0,-100.00,West,279,12.0,26.0,49,0.00,,,0.00,71.000000,,2013-01-20 11:22:00,
2013-01-20 04:33:00,32.0,15.0,-100.00,West,279,12.0,26.0,49,0.00,,,0.00,71.000000,,2013-01-20 11:33:00,
2013-01-20 05:03:00,33.0,14.0,-100.00,WNW,294,14.0,30.0,46,0.00,,,0.00,87.000000,,2013-01-20 12:03:00,
2013-01-20 05:12:00,33.0,14.0,-100.00,WNW,294,14.0,30.0,46,0.00,,,0.00,87.000000,,2013-01-20 12:12:00,
2013-01-20 05:23:00,33.0,14.0,-100.00,WNW,294,14.0,30.0,46,0.00,,,0.00,87.000000,,2013-01-20 12:23:00,
2013-01-20 05:33:00,33.0,14.0,-100.00,WNW,294,14.0,30.0,46,0.00,,,0.00,87.000000,,2013-01-20 12:33:00,
2013-01-20 05:53:00,34.0,12.0,-100.00,WNW,301,11.0,30.0,40,0.00,,,0.00,64.000000,,2013-01-20 12:53:00,
2013-01-20 06:03:00,34.0,12.0,-100.00,WNW,301,11.0,30.0,40,0.00,,,0.00,64.000000,,2013-01-20 13:03:00,
2013-01-20 06:12:00,34.0,12.0,-100.00,WNW,301,11.0,30.0,40,0.00,,,0.00,64.000000,,2013-01-20 13:12:00,
2013-01-20 06:23:00,34.0,12.0,-100.00,WNW,301,11.0,30.0,40,0.00,,,0.00,64.000000,,2013-01-20 13:23:00,
2013-01-20 06:33:00,34.0,12.0,-100.00,WNW,301,11.0,30.0,40,0.00,,,0.00,64.000000,,2013-01-20 13:33:00,
2013-01-20 06:53:00,33.0,11.0,-100.00,NW,320,10.0,29.0,39,0.00,,,0.00,68.000000,,2013-01-20 13:53:00,
2013-01-20 07:02:00,33.0,11.0,-100.00,NW,320,10.0,29.0,39,0.00,,,0.00,68.000000,,2013-01-20 14:02:00,
2013-01-20 07:12:00,33.0,11.0,-100.00,NW,320,10.0,29.0,39,0.00,,,0.00,68.000000,,2013-01-20 14:12:00,
2013-01-20 07:23:00,33.0,11.0,-100.00,NW,320,10.0,29.0,39,0.00,,,0.00,68.000000,,2013-01-20 14:23:00,
2013-01-20 07:33:00,33.0,11.0,-100.00,NW,320,10.0,29.0,39,0.00,,,0.00,68.000000,,2013-01-20 14:33:00,
2013-01-20 07:53:00,26.0,15.0,-100.00,North,351,4.0,22.0,62,0.00,,,0.00,45.000000,,2013-01-20 14:53:00,
2013-01-20 08:03:00,26.0,15.0,-100.00,North,351,4.0,22.0,62,0.00,,,0.00,45.000000,,2013-01-20 15:03:00,
2013-01-20 08:12:00,26.0,15.0,-100.00,North,351,4.0,22.0,62,0.00,,,0.00,45.000000,,2013-01-20 15:12:00,
2013-01-20 08:23:00,26.0,15.0,-100.00,North,351,4.0,22.0,62,0.00,,,0.00,45.000000,,2013-01-20 15:23:00,
2013-01-20 08:33:00,26.0,15.0,-100.00,North,351,4.0,22.0,62,0.00,,,0.00,45.000000,,2013-01-20 15:33:00,
2013-01-20 09:03:00,25.0,15.0,-100.00,East,92,1.0,22.0,65,0.00,,,0.00,68.000000,,2013-01-20 16:03:00,
2013-01-20 09:12:00,25.0,15.0,-100.00,East,92,1.0,22.0,65,0.00,,,0.00,68.000000,,2013-01-20 16:12:00,
2013-01-20 09:23:00,25.0,15.0,-100.00,East,92,1.0,22.0,65,0.00,,,0.00,68.000000,,2013-01-20 16:23:00,
2013-01-20 09:33:00,25.0,15.0,-100.00,East,92,1.0,22.0,65,0.00,,,0.00,68.000000,,2013-01-20 16:33:00,
2013-01-20 10:03:00,23.0,15.0,-100.00,SSE,153,1.0,5.0,70,0.00,,,0.00,53.000000,,2013-01-20 17:03:00,
2013-01-20 10:13:00,23.0,15.0,-100.00,SSE,153,1.0,5.0,70,0.00,,,0.00,53.000000,,2013-01-20 17:13:00,
2013-01-20 10:22:00,23.0,15.0,-100.00,SSE,153,1.0,5.0,70,0.00,,,0.00,53.000000,,2013-01-20 17:22:00,
2013-01-20 10:33:00,23.0,15.0,-100.00,SSE,153,1.0,5.0,70,0.00,,,0.00,53.000000,,2013-01-20 17:33:00,
2013-01-20 11:03:00,25.0,15.0,-100.00,SE,131,3.0,5.0,65,0.00,,,0.00,103.000000,,2013-01-20 18:03:00,
2013-01-20 11:13:00,25.0,15.0,-100.00,SE,131,3.0,5.0,65,0.00,,,0.00,103.000000,,2013-01-20 18:13:00,
2013-01-20 11:23:00,25.0,15.0,-100.00,SE,131,3.0,5.0,65,0.00,,,0.00,103.000000,,2013-01-20 18:23:00,
2013-01-20 11:33:00,25.0,15.0,-100.00,SE,131,3.0,5.0,65,0.00,,,0.00,103.000000,,2013-01-20 18:33:00,
2013-01-20 11:53:00,21.0,16.0,-100.00,ESE,122,5.0,12.0,80,0.00,,,0.00,98.000000,,2013-01-20 18:53:00,
2013-01-20 12:02:00,21.0,16.0,-100.00,ESE,122,5.0,12.0,80,0.00,,,0.00,98.000000,,2013-01-20 19:02:00,
2013-01-20 12:12:00,21.0,16.0,-100.00,ESE,122,5.0,12.0,80,0.00,,,0.00,98.000000,,2013-01-20 19:12:00,
2013-01-20 12:22:00,21.0,16.0,-100.00,ESE,122,5.0,12.0,80,0.00,,,0.00,98.000000,,2013-01-20 19:22:00,
2013-01-20 12:33:00,21.0,16.0,-100.00,ESE,122,5.0,12.0,80,0.00,,,0.00,98.000000,,2013-01-20 19:33:00,
2013-01-20 12:53:00,20.0,16.0,-100.00,SE,132,4.0,12.0,83,0.00,,,0.00,72.000000,,2013-01-20 19:53:00,
2013-01-20 13:03:00,20.0,16.0,-100.00,SE,132,4.0,12.0,83,0.00,,,0.00,72.000000,,2013-01-20 20:03:00,
2013-01-20 13:12:00,20.0,16.0,-100.00,SE,132,4.0,12.0,83,0.00,,,0.00,72.000000,,2013-01-20 20:12:00,
2013-01-20 13:23:00,20.0,16.0,-100.00,SE,132,4.0,12.0,83,0.00,,,0.00,72.000000,,2013-01-20 20:23:00,
2013-01-20 13:33:00,20.0,16.0,-100.00,SE,132,4.0,12.0,83,0.00,,,0.00,72.000000,,2013-01-20 20:33:00,
2013-01-20 13:53:00,19.0,16.0,-100.00,SE,144,5.0,12.0,89,0.00,,,0.00,39.000000,,2013-01-20 20:53:00,
2013-01-20 14:03:00,19.0,16.0,-100.00,SE,144,5.0,12.0,89,0.00,,,0.00,39.000000,,2013-01-20 21:03:00,
2013-01-20 14:13:00,19.0,16.0,-100.00,SE,144,5.0,12.0,89,0.00,,,0.00,39.000000,,2013-01-20 21:13:00,
2013-01-20 14:23:00,19.0,16.0,-100.00,SE,144,5.0,12.0,89,0.00,,,0.00,39.000000,,2013-01-20 21:23:00,
2013-01-20 14:33:00,19.0,16.0,-100.00,SE,144,5.0,12.0,89,0.00,,,0.00,39.000000,,2013-01-20 21:33:00,
2013-01-20 15:03:00,17.0,15.0,-100.00,ESE,110,4.0,10.0,92,0.00,,,0.00,37.000000,,2013-01-20 22:03:00,
2013-01-20 15:13:00,17.0,15.0,-100.00,ESE,110,4.0,10.0,92,0.00,,,0.00,37.000000,,2013-01-20 22:13:00,
2013-01-20 15:23:00,17.0,15.0,-100.00,ESE,110,4.0,10.0,92,0.00,,,0.00,37.000000,,2013-01-20 22:23:00,
2013-01-20 15:33:00,17.0,15.0,-100.00,ESE,110,4.0,10.0,92,0.00,,,0.00,37.000000,,2013-01-20 22:33:00,
2013-01-20 15:53:00,17.0,15.0,-100.00,SE,141,4.0,8.0,90,0.00,,,0.00,56.000000,,2013-01-20 22:53:00,
2013-01-20 16:03:00,17.0,15.0,-100.00,SE,141,4.0,8.0,90,0.00,,,0.00,56.000000,,2013-01-20 23:03:00,
2013-01-20 16:13:00,17.0,15.0,-100.00,SE,141,4.0,8.0,90,0.00,,,0.00,56.000000,,2013-01-20 23:13:00,
2013-01-20 16:23:00,17.0,15.0,-100.00,SE,141,4.0,8.0,90,0.00,,,0.00,56.000000,,2013-01-20 23:23:00,
2013-01-20 16:33:00,17.0,15.0,-100.00,SE,141,4.0,8.0,90,0.00,,,0.00,56.000000,,2013-01-20 23:33:00,
2013-01-20 17:03:00,17.0,14.0,-100.00,SSE,150,5.0,7.0,89,0.00,,,0.00,59.000000,,2013-01-21 00:03:00,
2013-01-20 17:13:00,17.0,14.0,-100.00,SSE,150,5.0,7.0,89,0.00,,,0.00,59.000000,,2013-01-21 00:13:00,
2013-01-20 17:23:00,17.0,14.0,-100.00,SSE,150,5.0,7.0,89,0.00,,,0.00,59.000000,,2013-01-21 00:23:00,
2013-01-20 17:33:00,17.0,14.0,-100.00,SSE,150,5.0,7.0,89,0.00,,,0.00,59.000000,,2013-01-21 00:33:00,
2013-01-20 17:54:00,16.0,14.0,-100.00,SSE,157,5.0,10.0,90,0.00,,,0.00,62.000000,,2013-01-21 00:54:00,
2013-01-20 18:03:00,16.0,14.0,-100.00,SSE,157,5.0,10.0,90,0.00,,,0.00,62.000000,,2013-01-21 01:03:00,
2013-01-20 18:13:00,16.0,14.0,-100.00,SSE,157,5.0,10.0,90,0.00,,,0.00,62.000000,,2013-01-21 01:13:00,
2013-01-20 18:23:00,16.0,14.0,-100.00,SSE,157,5.0,10.0,90,0.00,,,0.00,62.000000,,2013-01-21 01:23:00,
2013-01-20 18:33:00,16.0,14.0,-100.00,SSE,157,5.0,10.0,90,0.00,,,0.00,62.000000,,2013-01-21 01:33:00,
2013-01-20 19:03:00,16.0,14.0,-100.00,SSE,156,5.0,10.0,90,0.00,,,0.00,83.000000,,2013-01-21 02:03:00,
2013-01-20 19:12:00,16.0,14.0,-100.00,SSE,156,5.0,10.0,90,0.00,,,0.00,83.000000,,2013-01-21 02:12:00,
2013-01-20 19:23:00,16.0,14.0,-100.00,SSE,156,5.0,10.0,90,0.00,,,0.00,83.000000,,2013-01-21 02:23:00,
2013-01-20 19:33:00,16.0,14.0,-100.00,SSE,156,5.0,10.0,90,0.00,,,0.00,83.000000,,2013-01-21 02:33:00,
2013-01-20 19:53:00,15.0,12.0,-100.00,SE,146,6.0,11.0,89,0.00,,,0.00,90.000000,,2013-01-21 02:53:00,
2013-01-20 20:03:00,15.0,12.0,-100.00,SE,146,6.0,11.0,89,0.00,,,0.00,90.000000,,2013-01-21 03:03:00,
2013-01-20 20:13:00,15.0,12.0,-100.00,SE,146,6.0,11.0,89,0.00,,,0.00,90.000000,,2013-01-21 03:13:00,
2013-01-20 20:23:00,15.0,12.0,-100.00,SE,146,6.0,11.0,89,0.00,,,0.00,90.000000,,2013-01-21 03:23:00,
2013-01-20 20:33:00,15.0,12.0,-100.00,SE,146,6.0,11.0,89,0.00,,,0.00,90.000000,,2013-01-21 03:33:00,
2013-01-20 20:53:00,13.0,10.0,-100.00,SE,138,6.0,11.0,87,0.00,,,0.00,85.000000,,2013-01-21 03:53:00,
2013-01-20 21:03:00,13.0,10.0,-100.00,SE,138,6.0,11.0,87,0.00,,,0.00,85.000000,,2013-01-21 04:03:00,
2013-01-20 21:12:00,13.0,10.0,-100.00,SE,138,6.0,11.0,87,0.00,,,0.00,85.000000,,2013-01-21 04:12:00,
2013-01-20 21:23:00,13.0,10.0,-100.00,SE,138,6.0,11.0,87,0.00,,,0.00,85.000000,,2013-01-21 04:23:00,
2013-01-20 21:33:00,13.0,10.0,-100.00,SE,138,6.0,11.0,87,0.00,,,0.00,85.000000,,2013-01-21 04:33:00,
2013-01-20 21:53:00,11.0,8.0,-100.00,SE,136,4.0,10.0,87,0.00,,,0.00,47.000000,,2013-01-21 04:53:00,
2013-01-20 22:04:00,11.0,8.0,-100.00,SE,136,4.0,10.0,87,0.00,,,0.00,47.000000,,2013-01-21 05:04:00,
2013-01-20 22:12:00,11.0,8.0,-100.00,SE,136,4.0,10.0,87,0.00,,,0.00,47.000000,,2013-01-21 05:12:00,
2013-01-20 22:22:00,11.0,8.0,-100.00,SE,136,4.0,10.0,87,0.00,,,0.00,47.000000,,2013-01-21 05:22:00,
2013-01-20 22:34:00,11.0,8.0,-100.00,SE,136,4.0,10.0,87,0.00,,,0.00,47.000000,,2013-01-21 05:34:00,
2013-01-20 22:53:00,10.0,7.0,-100.00,SSE,150,6.0,11.0,86,0.00,,,0.00,63.000000,,2013-01-21 05:53:00,
2013-01-20 23:03:00,10.0,7.0,-100.00,SSE,150,6.0,11.0,86,0.00,,,0.00,63.000000,,2013-01-21 06:03:00,
2013-01-20 23:12:00,10.0,7.0,-100.00,SSE,150,6.0,11.0,86,0.00,,,0.00,63.000000,,2013-01-21 06:12:00,
2013-01-20 23:23:00,10.0,7.0,-100.00,SSE,150,6.0,11.0,86,0.00,,,0.00,63.000000,,2013-01-21 06:23:00,
2013-01-20 23:33:00,10.0,7.0,-100.00,SSE,150,6.0,11.0,86,0.00,,,0.00,63.000000,,2013-01-21 06:33:00,
2013-01-20 23:53:00,9.0,5.0,-100.00,SE,142,4.0,11.0,85,0.00,,,0.00,70.000000,,2013-01-21 06:53:00,